Track ASRTU-1 (AO-123) now! 10-day predictions ASRTU-1 (AO-123) is classified as:
1 61781U 24199AY 26230.57162771 .00007398 00000-0 20934-3 0 9995 2 61781 97.2904 98.6857 0015444 85.5160 274.7849 15.36476404143506